Theta_e
305 296 293 293 295 296 298 298 299 299 299 298 298 296 294 294 295 297 297 298 298 297 297 297 298 299 300 301 302 304 305 303 303 303 304 305 305 306 306 306 308 308 309 316 316 316 315 317 319 322 324 326 326 327 328 329 331 332 333 334 334 335 335 334 334 333 333 331 331 332 331 330 330 332 334 335 336 335 334 333 333 333 332 333 332 330
301 295 294 296 298 298 298 299 298 298 298 297 297 296 295 296 294 297 296 298 299 296 296 298 298 299 300 301 302 304 303 302 303 303 304 304 305 306 307 308 309 309 313 321 316 314 316 314 316 317 320 321 323 324 325 326 328 330 332 332 334 335 334 333 333 333 332 332 331 330 330 331 331 330 329 331 334 335 336 335 334 333 333 333 333 330
295 293 297 299 299 300 299 298 298 297 296 297 295 295 294 295 297 295 297 297 298 296 295 299 296 297 300 301 303 303 303 304 305 305 305 305 305 306 306 308 310 311 312 315 314 314 312 315 314 313 314 316 321 324 324 325 326 328 330 331 332 334 333 333 333 333 332 333 334 333 332 332 332 334 334 333 333 335 335 335 334 333 333 333 332 329
291 295 299 298 300 298 297 297 297 297 297 296 296 294 292 298 294 292 295 297 296 296 297 297 295 297 300 302 302 304 304 305 306 306 307 307 306 306 307 308 309 310 312 313 313 311 311 313 313 312 312 312 314 316 321 324 325 326 328 329 331 332 332 332 333 332 334 334 335 334 334 334 333 332 334 334 334 334 335 334 334 332 330 329 328 329
294 295 294 297 298 298 295 296 296 295 293 298 299 296 294 294 295 297 295 296 296 296 295 296 295 295 298 297 299 302 305 305 306 306 306 308 310 311 314 313 314 310 311 313 312 312 311 311 312 312 312 312 312 314 316 321 324 325 326 328 329 330 331 333 332 332 333 333 333 333 333 333 332 334 334 333 332 332 332 333 333 332 331 330 329 330
294 295 296 295 297 296 297 294 296 297 293 295 299 299 297 296 296 295 296 294 294 294 296 295 289 290 297 298 298 301 301 301 303 303 303 304 305 306 306 307 309 311 312 310 310 312 312 312 312 312 312 312 312 312 314 319 322 324 326 327 328 329 331 331 332 332 331 331 330 329 327 326 326 326 327 326 327 330 330 330 332 334 333 332 332 332
294 291 295 296 296 297 296 295 298 298 294 294 294 299 298 297 297 297 296 296 289 288 294 295 288 287 297 297 299 300 300 300 302 302 302 303 304 306 306 307 307 308 309 311 310 310 310 311 311 311 311 311 311 311 313 315 319 322 324 327 327 328 329 331 331 331 330 330 330 329 327 327 326 324 326 328 329 329 329 330 330 331 333 333 333 333
292 292 294 298 297 297 295 293 298 298 294 293 296 299 299 298 297 297 297 295 293 296 295 294 296 289 289 296 302 299 299 299 300 301 303 303 304 305 305 306 307 307 306 307 308 309 309 308 309 309 310 310 309 310 311 312 314 318 321 324 326 327 327 329 330 330 330 328 328 328 328 327 327 327 326 327 328 330 330 329 330 332 333 333 332 332
294 292 295 295 297 295 294 299 301 300 295 295 294 300 298 298 298 298 296 295 296 293 289 293 298 288 288 296 298 299 296 297 298 300 302 304 306 305 306 305 307 308 308 308 309 311 311 310 308 308 309 310 310 310 310 310 312 314 318 320 323 325 326 327 328 329 329 327 327 327 327 326 326 327 328 328 328 328 330 330 331 332 333 332 332 332
296 295 297 298 296 294 295 292 297 301 295 294 297 299 299 300 300 299 295 295 294 290 286 292 295 287 288 295 296 297 296 296 298 300 302 304 304 306 305 307 307 306 307 308 308 308 309 309 308 308 308 308 308 309 310 310 311 312 314 316 320 322 324 326 326 327 328 327 326 326 326 325 325 325 326 327 327 327 328 328 331 331 331 332 330 330
296 297 296 297 296 297 293 294 296 297 298 298 300 298 297 297 296 295 296 293 291 285 288 294 294 291 285 294 295 296 297 298 298 300 301 302 304 305 306 306 306 305 305 306 307 309 310 309 307 306 305 308 311 310 309 311 311 312 313 315 318 319 322 324 325 325 325 325 325 325 326 325 324 324 325 325 325 326 326 325 326 327 328 329 329 330
297 295 297 296 295 296 298 295 297 298 299 301 298 294 294 292 294 292 290 293 285 283 287 288 291 292 284 289 297 298 297 297 297 298 300 301 303 305 306 305 305 304 305 305 307 310 310 307 307 307 309 311 310 309 309 313 313 313 314 315 316 318 320 322 323 323 323 324 324 324 325 325 324 325 324 323 323 323 324 324 324 326 326 326 327 328
294 294 297 296 297 296 299 294 294 296 297 298 296 294 288 285 286 283 287 283 283 283 286 288 289 287 287 292 296 298 298 298 299 299 300 301 302 305 306 307 306 308 306 307 309 310 310 312 311 311 312 312 310 311 312 313 314 315 315 315 315 317 320 321 322 322 322 323 323 323 323 324 324 324 324 323 323 323 323 323 323 323 323 324 324 325
293 297 296 297 297 296 299 292 290 290 294 295 292 290 286 283 282 280 283 286 286 285 286 288 291 285 291 294 298 298 300 299 300 300 301 301 301 302 304 305 306 309 307 308 310 311 312 312 313 313 312 313 313 313 313 314 315 316 316 316 316 317 320 320 320 321 321 322 322 323 323 323 323 323 324 323 323 323 323 323 322 322 322 322 322 323
285 285 290 294 291 299 297 299 295 294 293 294 303 294 289 288 284 279 283 281 282 285 284 288 285 285 287 292 297 300 300 300 299 299 301 301 302 302 303 304 305 307 306 308 312 312 312 312 312 313 313 313 314 313 314 314 316 317 317 318 318 318 318 318 318 319 319 320 321 322 323 323 323 323 323 323 323 322 322 323 322 322 322 322 322 322
289 289 293 296 295 297 296 298 299 298 295 296 297 297 290 289 293 285 285 285 285 284 283 283 285 292 292 300 301 302 301 299 298 298 298 299 301 303 303 305 307 306 306 308 311 312 311 311 311 312 312 313 313 313 314 314 316 316 317 318 319 317 316 316 316 317 319 319 320 321 321 322 322 322 322 322 322 322 322 322 322 322 322 322 322 323
290 287 293 297 297 295 296 296 296 300 286 292 293 288 291 295 291 284 283 283 282 283 283 290 288 292 297 298 299 300 299 298 297 296 297 299 301 302 304 306 307 307 307 308 311 312 311 310 310 312 312 312 312 313 314 314 316 317 318 318 318 316 315 314 315 317 318 319 318 319 320 320 320 319 319 320 320 321 321 322 322 321 322 322 322 322
289 288 291 294 292 294 295 294 299 295 297 294 286 292 295 297 297 290 283 284 283 281 283 288 286 287 289 286 298 297 297 298 297 297 297 299 302 300 304 309 309 309 306 305 306 307 309 311 310 311 311 312 313 313 314 314 316 318 318 318 318 316 314 314 314 315 317 317 317 317 318 318 318 318 318 319 320 321 320 320 320 321 320 320 321 320
296 284 290 290 293 294 296 297 295 297 296 295 293 302 291 285 285 288 286 280 280 280 282 286 287 287 290 290 294 294 294 296 297 298 296 296 298 301 305 307 307 305 307 306 307 309 311 311 312 312 311 311 312 313 314 314 314 315 316 318 317 316 316 316 316 316 317 318 318 318 317 318 318 319 319 319 320 320 319 319 318 318 319 319 319 318
299 288 285 292 293 294 295 295 287 291 298 297 296 294 296 292 289 286 286 287 286 282 282 283 284 284 293 292 294 295 297 298 297 298 297 299 301 302 305 307 307 306 305 306 306 308 309 310 310 311 311 310 310 310 310 311 312 313 314 314 316 317 317 317 316 317 317 318 318 318 318 318 319 319 319 319 319 318 317 317 317 317 317 317 317 316
291 294 286 289 293 294 287 292 290 292 288 290 291 289 292 294 294 292 293 287 285 283 283 283 282 287 296 297 296 297 297 297 297 299 301 301 301 302 304 306 307 306 305 305 308 308 309 310 309 309 308 308 308 308 309 310 311 312 312 313 313 313 313 314 315 315 315 315 315 315 315 315 315 315 315 315 316 315 315 315 315 315 315 315 314 313
289 289 286 287 287 287 291 293 293 295 295 293 292 290 291 289 286 284 283 290 285 285 283 283 282 289 297 296 297 297 297 298 299 300 301 300 299 302 304 304 304 305 303 303 307 308 309 309 308 308 307 307 308 308 308 308 309 310 311 312 312 312 313 312 312 313 313 313 313 313 314 313 313 313 312 312 312 312 312 312 312 312 312 311 311 311
297 296 290 285 288 290 292 293 292 292 290 294 293 292 295 293 292 287 282 285 286 286 285 286 283 286 298 297 297 298 296 296 297 298 300 300 301 302 304 304 303 303 302 303 306 307 307 306 306 306 307 308 307 307 306 307 308 309 309 309 310 311 310 311 311 311 311 311 311 311 311 311 310 310 309 309 310 310 310 310 310 310 309 309 309 309
295 289 288 288 290 291 292 293 292 291 293 293 293 294 294 291 292 291 289 290 287 285 283 285 281 287 298 298 295 296 296 296 296 297 298 299 300 302 303 305 304 306 305 305 305 306 306 306 307 308 308 308 308 307 307 307 307 308 307 307 308 307 307 307 308 308 309 309 308 308 308 308 308 308 308 308 308 308 308 307 307 306 306 306 307 306
289 292 290 285 285 286 288 292 291 294 293 291 291 294 294 296 295 290 288 291 287 287 287 285 280 287 296 297 296 295 296 295 296 297 297 300 302 304 304 305 305 305 305 305 305 305 305 306 306 306 306 305 305 305 304 305 304 304 303 303 303 303 303 304 305 306 306 307 306 306 306 305 305 305 305 305 305 304 304 304 304 304 303 304 304 305
292 291 289 283 280 278 278 279 282 285 288 291 294 295 295 294 293 289 286 287 284 288 287 285 285 292 295 295 295 295 295 296 298 299 298 300 303 303 305 306 305 306 306 305 306 306 305 305 304 304 304 303 303 303 303 303 303 302 301 301 302 302 302 302 303 304 305 305 305 304 303 303 303 302 302 302 302 302 302 302 302 302 303 302 302 302
290 294 292 290 287 285 287 289 297 296 291 287 290 292 293 294 295 293 291 287 284 288 286 288 289 291 291 292 293 295 296 295 296 298 298 298 299 302 304 306 306 306 306 306 305 304 304 303 303 303 302 302 302 301 302 302 302 301 300 300 300 301 301 302 303 303 304 304 303 301 301 300 300 301 301 301 301 301 301 301 301 301 300 300 300 300
290 289 293 293 292 292 294 294 297 296 291 292 290 291 294 292 292 290 288 286 291 288 284 291 293 289 292 293 294 295 297 297 298 299 299 300 302 303 303 304 302 305 305 303 304 304 304 303 303 302 302 302 301 301 300 300 300 299 299 299 299 299 301 302 302 302 302 301 300 299 299 299 299 299 299 300 300 299 299 299 299 299 299 299 299 299
290 287 293 293 293 294 296 297 297 296 295 294 293 293 292 293 291 287 288 293 294 287 285 292 293 291 293 295 296 296 298 298 299 300 301 301 303 303 303 303 303 303 303 304 304 304 304 303 302 301 301 301 300 300 299 299 299 299 298 298 298 299 299 301 300 299 299 298 298 298 298 298 298 298 298 298 298 297 297 298 297 297 297 297 298 299
292 289 292 293 291 293 295 294 297 295 294 295 295 295 294 293 292 292 292 293 293 292 293 293 294 295 295 296 297 298 300 300 299 299 298 300 301 302 302 302 302 303 303 304 303 303 302 301 300 300 299 299 299 298 298 298 297 297 297 297 297 298 299 299 298 298 297 297 297 297 298 297 297 297 297 297 296 296 296 296 296 296 296 296 297 297
293 288 293 293 288 289 293 295 295 295 294 292 295 296 295 294 293 293 293 293 294 293 294 294 293 293 299 301 299 300 302 299 298 298 298 301 301 301 301 302 304 305 305 303 302 302 301 300 299 298 297 297 296 296 297 297 297 297 296 296 297 297 298 298 296 296 296 296 296 296 296 296 296 295 294 294 294 294 294 294 295 295 295 295 295 296
294 289 291 290 286 286 290 291 291 292 290 289 291 293 293 292 289 291 290 294 292 290 292 292 290 292 297 301 301 301 298 297 298 298 299 301 301 301 302 304 305 305 303 302 302 301 300 299 298 297 296 295 295 295 296 296 296 296 295 295 295 296 296 296 295 295 294 294 294 294 294 294 294 293 293 292 292 293 293 293 293 293 294 294 293 294
290 289 288 288 285 285 290 292 288 287 285 284 285 292 294 293 294 294 295 295 295 295 291 288 291 296 299 300 298 297 297 297 298 298 300 302 303 302 302 303 305 303 301 301 301 300 299 297 296 295 295 294 294 294 294 295 295 294 294 294 295 295 295 294 294 294 293 293 293 293 293 293 292 292 292 291 291 292 292 292 292 292 291 292 293 293
290 290 289 291 284 285 282 286 287 284 278 280 293 296 296 293 293 292 292 294 296 296 294 296 297 299 299 298 297 297 297 298 299 301 304 304 304 303 302 302 302 301 301 301 300 298 296 295 294 293 293 293 293 293 293 293 293 293 294 294 294 294 294 293 293 292 292 291 291 291 291 291 291 291 291 290 290 290 290 290 290 290 291 291 291 292
288 289 289 290 286 284 284 285 281 276 279 292 296 299 298 297 297 295 295 296 297 297 297 296 297 298 299 299 299 299 299 299 299 301 299 297 300 301 302 300 300 299 299 297 296 295 295 294 293 292 292 292 292 293 293 293 293 293 293 293 292 293 292 292 291 291 291 290 290 290 290 290 290 289 289 289 289 289 289 289 289 289 289 288 290 290
289 288 289 288 289 287 283 283 275 277 288 296 296 297 300 298 297 296 294 297 297 297 298 296 298 299 300 300 299 300 300 298 294 292 293 294 295 298 299 300 299 298 296 296 295 294 294 293 293 292 291 292 292 292 292 292 292 291 291 291 291 291 291 290 290 289 289 289 289 289 289 289 289 288 288 288 288 287 287 288 288 287 289 288 288 288
294 292 290 286 289 282 283 283 282 290 287 288 290 291 294 292 293 291 288 292 298 299 299 297 298 299 299 300 301 298 296 296 296 297 292 292 293 293 296 298 297 296 295 295 294 293 293 292 291 291 291 291 291 291 291 291 291 291 290 289 290 289 289 288 287 287 288 287 287 288 288 288 287 287 287 286 286 286 286 286 286 287 288 287 287 287
296 289 291 287 285 288 284 282 282 281 278 285 294 297 298 298 298 298 293 289 298 299 300 299 298 298 299 300 297 296 297 294 292 295 295 291 292 291 291 292 293 293 293 292 291 291 290 290 290 290 290 289 289 289 290 290 290 289 288 288 288 287 287 286 286 286 286 285 286 286 286 286 285 285 285 285 285 285 285 285 286 286 287 286 286 286
295 296 295 288 286 286 284 281 280 278 281 290 295 298 297 299 300 298 291 286 295 298 299 299 298 299 299 297 295 295 293 288 291 295 294 291 290 291 290 290 291 291 291 291 290 289 289 289 288 288 289 288 287 288 289 289 289 288 287 286 286 285 284 283 283 283 283 284 284 284 284 284 284 284 283 283 284 284 284 284 285 285 286 286 286 286
290 290 289 287 285 286 284 282 280 284 284 291 295 296 296 299 301 293 282 283 295 297 299 299 298 298 300 298 295 294 292 290 292 298 292 291 290 291 290 289 289 289 289 289 288 288 287 287 287 287 286 286 286 287 288 287 287 285 285 284 284 282 281 281 281 282 282 282 283 283 282 283 282 282 282 282 283 283 284 285 285 285 285 285 286 286
286 287 287 284 285 286 285 284 286 286 293 294 294 294 295 300 295 285 279 288 298 299 298 299 299 299 300 297 295 292 295 297 294 291 290 290 289 289 289 290 289 289 288 287 287 287 287 287 286 285 284 285 285 286 287 287 285 283 283 282 281 279 279 279 280 279 280 280 281 280 280 280 280 280 281 282 282 283 283 284 284 284 284 284 285 285
286 287 287 287 284 284 285 283 283 287 293 297 295 296 298 293 284 283 292 293 296 296 298 299 299 299 299 298 297 297 292 288 290 290 289 289 289 288 288 288 288 287 287 287 287 286 285 284 283 283 282 283 283 284 285 285 283 282 281 279 277 277 277 277 277 277 278 279 278 278 278 278 278 279 279 280 281 281 281 283 283 284 284 284 284 284
286 284 283 284 286 287 286 283 282 278 290 297 293 291 296 288 290 296 293 292 291 294 295 295 298 300 299 297 297 292 289 289 288 289 289 288 287 286 286 286 286 285 285 285 285 286 285 283 282 281 281 281 281 282 283 283 281 280 278 276 275 276 276 275 275 275 276 276 276 276 276 277 277 277 279 279 280 280 280 281 282 282 283 283 283 283
292 285 285 286 289 282 283 281 282 289 294 296 295 289 292 295 298 296 299 293 292 294 293 295 295 296 297 296 291 290 289 288 288 287 287 287 286 286 286 286 286 285 285 285 285 285 284 282 280 279 280 280 280 280 281 280 279 277 276 274 275 275 275 274 274 275 275 275 274 275 275 275 276 277 278 278 278 278 279 280 281 281 281 282 282 282
293 289 289 286 291 287 286 289 293 293 295 298 298 299 298 300 298 297 298 297 295 293 294 295 295 294 295 293 291 289 288 288 288 288 286 286 285 285 285 284 284 284 283 283 283 283 283 281 279 278 278 279 279 279 278 278 277 275 274 274 274 273 272 272 273 273 273 273 273 274 274 275 275 276 276 276 277 277 278 278 279 279 280 280 280 281
288 293 287 289 290 290 293 292 292 292 294 292 293 293 291 294 295 294 297 296 296 295 294 294 294 293 292 291 289 289 288 288 287 287 286 285 285 285 284 283 282 282 281 281 280 280 280 279 278 277 276 277 278 277 276 275 275 273 273 273 272 271 270 270 271 271 272 272 272 273 273 273 274 275 275 275 276 276 277 277 277 277 278 279 279 279
293 292 289 289 288 289 286 292 291 292 293 293 294 292 292 291 293 293 294 295 295 294 293 293 293 292 291 291 290 289 288 288 287 286 286 285 284 283 282 282 281 280 279 278 278 278 278 277 277 276 276 275 276 276 275 274 273 273 272 271 270 269 268 269 270 270 271 270 271 272 272 272 272 273 274 274 275 275 276 276 276 277 277 278 277 277
287 293 289 290 289 288 289 289 289 290 290 290 290 292 293 293 291 290 290 290 292 293 293 292 291 290 290 289 290 288 288 288 287 286 285 284 283 282 281 280 279 278 277 277 277 277 276 276 275 275 275 275 275 275 274 273 272 271 270 269 267 267 267 267 268 268 269 269 270 270 271 271 272 272 272 273 273 273 274 275 275 275 275 275 275 275
289 291 287 290 288 290 290 288 289 289 290 291 291 291 293 295 292 289 288 289 290 289 290 290 291 291 290 290 290 288 287 287 287 286 284 283 282 281 280 279 278 277 276 275 275 275 275 274 274 274 274 274 274 274 272 272 271 270 268 267 266 265 265 265 266 267 268 269 269 269 270 270 270 270 271 271 271 272 273 273 273 274 274 275 277 277
289 286 290 290 287 287 288 289 290 288 289 292 291 292 291 291 289 288 287 287 288 288 288 286 285 286 287 288 289 288 287 286 286 285 283 282 281 280 279 278 277 275 274 274 273 273 273 273 273 273 273 273 273 272 271 270 269 268 266 265 264 264 263 263 265 267 267 267 268 268 268 269 269 269 270 270 270 270 271 274 275 275 274 274 277 278
289 290 290 287 287 287 293 292 293 294 293 293 296 293 290 288 288 287 287 287 287 287 287 286 285 285 285 286 288 288 287 286 285 284 282 280 279 279 278 277 275 274 272 272 271 271 271 271 272 272 272 272 272 270 269 269 268 266 265 263 263 263 262 262 265 266 266 267 266 267 267 267 268 268 268 269 269 269 270 270 272 275 276 276 276 276
Wind_Speed
3 9 10 11 10 12 12 14 6 2 3 5 9 8 7 6 6 6 6 4 1 3 10 12 13 13 12 11 9 10 9 8 9 10 9 9 9 9 9 10 10 11 11 6 7 6 8 8 9 9 9 10 11 11 11 12 13 13 12 12 13 12 12 11 11 11 11 11 10 10 11 10 10 10 10 10 9 8 9 12 9 9 9 11 10 10
3 9 11 12 12 13 14 5 2 1 0 5 6 7 6 5 4 4 4 4 2 4 6 8 11 13 13 13 13 11 11 13 12 13 13 13 12 11 11 12 12 11 6 5 5 6 7 7 7 7 7 10 12 12 13 13 14 14 14 14 13 11 12 12 12 10 11 11 11 11 11 10 9 9 10 10 11 10 7 9 12 12 12 12 11 11
8 11 10 8 6 6 5 4 2 2 3 2 5 5 6 6 4 4 5 4 4 3 8 3 8 11 13 13 13 14 14 13 13 13 14 13 13 12 12 12 12 10 10 8 10 8 8 8 9 8 8 8 11 11 13 13 13 13 13 12 12 11 11 12 12 11 10 10 10 10 8 10 8 9 8 8 9 9 10 7 6 9 10 12 9 8
8 11 3 5 5 6 4 4 5 4 4 4 5 5 7 3 7 4 4 5 3 4 3 4 8 10 11 13 15 14 13 13 12 13 13 11 13 13 13 12 11 11 10 11 9 10 9 9 9 8 8 8 8 9 10 12 13 11 11 12 12 11 12 11 12 10 10 10 9 8 7 8 9 7 9 9 8 9 10 11 11 7 5 7 8 7
6 3 4 2 6 9 9 7 9 7 7 5 5 5 4 3 3 4 4 3 3 3 1 7 9 11 11 12 11 12 13 11 8 5 7 7 7 6 3 3 4 8 9 8 8 8 9 9 10 10 9 8 8 9 9 10 11 9 13 12 13 12 12 11 11 12 10 8 8 8 7 6 7 1 4 8 9 10 10 9 10 11 9 10 9 10
3 1 1 5 5 7 8 8 10 8 8 6 5 4 3 4 4 7 7 6 3 4 4 2 4 7 8 13 13 7 4 9 9 9 12 12 11 10 11 12 10 8 7 7 7 7 7 8 7 8 8 8 8 9 9 9 10 10 10 11 12 10 10 11 11 12 10 9 9 9 8 9 9 10 10 11 11 10 11 11 9 10 11 12 12 12
0 1 3 7 8 7 8 7 7 7 7 5 4 5 1 0 3 6 6 3 3 6 3 3 6 4 3 3 6 7 5 7 6 8 10 10 9 9 9 8 8 9 7 7 8 8 8 8 7 7 7 8 8 8 8 8 9 10 9 10 11 10 9 9 10 12 10 10 9 10 10 9 9 9 9 9 8 7 7 7 9 9 9 10 8 7
4 5 2 3 7 8 8 8 8 10 6 5 3 1 4 4 5 6 6 5 4 4 3 3 3 5 7 8 1 5 4 6 9 10 11 9 9 8 7 7 6 5 5 4 5 6 7 8 9 9 8 8 8 7 7 7 8 10 10 10 11 9 9 9 9 11 11 10 10 9 10 9 9 9 8 9 9 8 7 8 8 7 7 8 10 8
4 5 7 8 7 7 8 1 6 9 7 0 1 1 5 3 4 5 5 3 2 3 4 6 4 3 7 3 4 3 6 9 10 10 11 9 6 6 5 4 4 3 3 4 4 5 6 7 7 7 6 6 5 6 7 7 8 8 9 9 10 9 9 9 11 10 11 10 9 9 9 9 8 8 7 6 7 8 9 9 8 8 6 6 7 8
2 2 5 5 8 8 3 2 4 1 8 1 3 5 5 4 4 3 3 3 2 4 6 6 7 5 10 5 5 4 6 7 7 8 6 5 4 3 3 3 2 1 2 3 5 5 5 5 5 5 3 3 4 3 4 5 6 7 8 10 11 11 9 9 11 11 11 11 9 9 9 10 9 8 7 7 7 7 7 8 8 8 8 7 6 7
2 0 3 1 3 3 5 6 2 5 5 9 6 9 7 5 3 2 0 2 3 6 7 5 2 3 6 3 5 5 5 5 6 5 4 4 4 3 3 3 1 1 1 2 4 4 4 3 4 4 6 5 5 4 6 6 7 8 8 10 11 11 9 9 11 11 11 11 10 9 9 10 10 10 9 8 7 6 6 8 7 6 6 7 7 6
4 4 3 2 1 4 4 7 6 1 5 6 4 6 7 3 3 3 2 2 3 6 3 4 1 2 6 3 4 1 4 2 0 1 4 4 4 4 3 2 2 2 3 3 3 3 2 3 4 5 5 5 6 6 6 6 6 7 8 9 11 11 10 9 10 11 10 10 9 8 9 10 10 10 9 9 8 8 7 6 7 5 5 7 5 5
4 4 3 3 3 2 5 8 4 3 2 2 7 8 6 4 3 4 3 5 7 6 3 2 1 2 12 13 4 5 4 3 5 4 1 3 3 3 3 2 1 1 3 2 2 2 1 2 4 5 5 5 6 6 7 7 6 7 7 9 11 11 10 9 10 10 10 9 9 9 9 9 9 9 9 8 8 7 7 6 5 5 5 4 4 5
3 4 4 4 3 5 6 9 6 5 6 7 9 8 7 6 5 6 6 3 2 3 3 3 1 5 7 8 14 17 13 3 3 1 1 3 3 3 3 3 3 3 3 2 1 1 1 2 2 3 4 4 4 5 6 6 6 6 6 8 9 10 9 9 9 8 9 9 9 9 9 9 8 9 8 7 7 7 7 7 7 8 7 6 7 5
8 4 9 12 5 8 5 2 6 5 11 8 0 6 4 4 3 5 5 6 3 0 3 5 0 4 1 1 5 4 3 1 2 2 2 2 3 4 4 4 4 3 0 1 1 1 1 2 2 2 3 3 4 5 5 5 5 5 6 7 9 9 8 8 8 7 9 9 10 9 9 8 7 8 8 7 5 6 7 7 6 6 6 6 6 6
12 3 4 5 3 2 7 1 2 7 4 1 1 2 1 4 3 2 2 2 1 1 3 2 5 4 6 5 5 7 6 3 4 3 3 3 4 3 3 3 2 1 0 1 1 2 2 2 2 2 3 3 3 4 4 5 4 5 5 6 7 8 8 7 8 9 10 9 8 6 8 7 5 2 2 2 1 5 7 7 7 6 6 6 6 6
1 6 1 3 1 3 2 3 1 2 6 5 2 3 1 4 5 4 1 2 0 1 5 4 4 7 6 10 13 9 5 4 5 4 3 3 3 3 3 3 3 2 1 1 1 2 3 3 2 2 3 3 3 3 3 4 4 5 5 6 7 8 8 9 9 9 9 9 8 8 6 5 5 5 7 8 8 8 7 7 6 6 7 6 6 5
10 5 2 0 5 2 2 3 2 4 3 6 2 7 3 1 2 1 3 2 2 5 3 3 6 7 2 4 2 2 5 2 5 3 1 2 3 3 4 4 3 3 2 1 0 1 2 3 3 3 2 3 3 4 4 4 4 3 4 5 6 8 8 8 8 9 8 8 8 8 8 8 8 8 8 8 8 7 7 6 6 6 5 6 4 4
3 5 2 3 2 2 1 2 3 1 2 2 1 2 6 3 4 4 2 4 3 5 4 5 7 7 6 8 2 4 3 2 4 2 1 2 4 5 5 5 5 4 3 2 1 2 2 2 3 3 3 3 4 4 4 4 4 3 3 4 5 6 7 8 7 7 7 7 6 6 8 9 8 8 7 7 7 6 6 6 5 4 4 3 3 4
0 1 1 2 1 3 1 4 7 5 3 2 0 2 3 2 3 5 5 2 2 5 3 3 3 4 6 6 10 11 10 6 3 3 2 3 3 3 3 4 5 5 3 2 2 2 2 3 4 4 4 4 4 4 4 4 3 3 3 3 4 5 6 7 7 7 6 6 6 6 6 7 6 6 6 5 5 4 4 4 3 4 4 3 3 3
4 3 3 2 3 2 5 6 8 11 9 5 5 6 2 1 2 3 1 3 2 3 6 6 6 3 1 5 6 4 1 4 2 3 2 1 2 1 2 3 4 4 2 2 2 2 3 3 4 5 5 4 4 4 4 3 3 3 3 3 3 4 5 5 5 5 4 5 4 5 5 5 4 4 3 3 2 2 2 2 3 2 2 1 2 2
2 3 4 6 5 6 3 4 3 4 4 8 10 10 12 7 4 5 5 2 0 3 4 5 7 3 2 0 4 3 3 3 2 3 4 2 1 1 2 3 3 2 2 1 1 2 3 3 4 5 4 4 4 4 4 4 3 4 4 4 4 4 3 4 4 3 4 3 3 4 4 4 3 3 3 2 2 2 1 1 1 1 1 2 3 3
1 4 8 6 5 5 3 1 2 0 1 1 1 7 7 7 5 4 7 5 2 2 3 1 4 3 3 2 1 4 4 3 2 0 2 1 2 0 2 3 2 1 1 1 1 2 3 3 4 4 5 5 5 5 4 4 4 4 4 4 4 3 5 4 5 4 3 3 3 4 4 4 3 3 2 2 2 1 2 2 2 1 2 3 2 2
3 3 5 5 5 3 2 1 3 1 1 2 5 3 4 11 14 9 3 2 5 3 2 3 4 3 1 1 1 2 3 2 1 2 2 2 1 1 2 3 3 3 3 2 2 3 3 4 4 5 6 5 5 5 5 4 4 5 5 5 4 5 6 5 4 4 4 4 5 5 4 4 4 4 4 4 4 3 2 2 2 1 1 2 2 2
5 4 5 6 3 2 1 2 1 1 2 6 8 10 10 4 6 3 1 0 2 6 6 5 8 7 2 3 1 1 1 2 3 3 3 3 1 1 2 3 3 3 3 4 4 5 5 5 5 5 5 6 6 6 6 6 6 6 6 5 5 5 5 4 4 4 4 5 6 5 5 6 5 6 6 5 4 3 3 2 2 1 1 2 1 2
7 8 10 9 10 10 9 9 12 12 14 5 1 3 8 8 7 4 5 3 7 4 9 5 8 11 2 2 4 4 4 3 3 3 3 4 2 1 0 1 2 2 3 5 5 5 6 5 5 6 6 6 6 6 6 6 5 6 6 6 4 4 4 4 4 4 5 5 6 7 7 7 7 7 6 5 4 3 3 2 2 2 2 2 3 2
3 5 11 11 12 13 12 12 2 11 10 8 13 13 13 15 14 9 1 5 8 5 6 10 12 12 4 7 7 6 6 9 9 6 5 5 4 3 1 0 2 2 4 5 5 5 5 6 7 6 7 6 6 6 6 6 6 6 6 6 6 5 5 5 5 5 6 7 8 7 8 7 7 6 5 4 3 3 3 3 2 3 3 2 2 3
3 5 11 14 16 16 10 9 9 16 13 14 17 16 12 14 14 13 10 13 14 4 7 10 14 14 15 7 8 8 8 7 8 7 7 5 5 5 4 2 2 3 4 4 5 6 6 7 6 7 7 7 6 6 6 6 6 6 5 5 5 5 4 4 5 7 7 8 8 8 7 6 5 5 4 3 3 4 4 4 4 4 3 3 4 4
4 8 11 11 13 13 9 1 10 11 13 14 17 15 14 14 15 13 13 14 8 9 12 16 16 17 17 14 11 13 10 8 10 11 7 6 6 5 4 5 6 6 7 6 6 6 6 6 6 6 7 6 7 7 7 6 6 5 6 6 6 6 6 6 7 8 8 8 8 6 5 4 4 4 4 4 5 5 5 5 4 4 4 4 4 3
2 7 8 10 11 12 7 3 4 10 9 8 12 15 16 17 17 18 17 17 16 12 17 21 19 17 18 13 14 12 9 8 5 5 4 5 6 6 6 5 7 8 9 9 8 7 7 7 7 7 7 6 7 7 6 6 6 6 6 7 6 7 6 6 7 7 7 7 6 5 5 5 5 5 5 6 6 6 6 5 5 4 4 4 4 3
4 5 11 5 6 10 8 5 4 7 8 10 7 7 9 11 12 18 13 17 19 19 20 21 20 17 11 9 12 10 5 6 6 5 5 6 6 6 7 8 8 8 8 8 8 8 8 8 7 7 7 6 6 6 6 6 6 6 7 7 7 7 5 6 7 7 7 7 6 6 5 5 5 5 7 6 6 6 6 6 5 5 4 3 3 2
6 2 3 3 8 8 8 8 8 4 1 1 4 7 10 12 12 13 15 17 18 19 20 18 16 13 17 11 8 8 8 7 8 7 7 6 8 8 8 8 8 8 8 8 8 8 8 7 7 7 7 6 6 6 6 6 6 7 7 6 6 5 5 6 6 7 7 6 6 5 6 5 5 6 6 6 6 6 5 5 4 4 4 3 3 3
7 5 5 6 9 9 6 10 6 5 2 5 8 13 17 18 17 18 16 16 16 16 17 14 15 18 9 6 11 12 11 9 8 7 6 6 9 11 10 7 5 6 7 7 7 7 7 7 6 7 6 6 6 6 6 6 6 7 6 6 5 4 5 6 6 7 7 6 6 6 6 5 6 6 6 6 6 5 5 5 4 5 5 4 4 4
5 7 6 7 6 4 4 3 5 6 10 11 11 18 18 18 19 16 14 17 17 16 13 14 15 10 6 9 11 10 10 11 9 9 2 2 1 2 4 6 6 6 7 6 7 7 7 6 6 6 7 7 7 7 6 6 7 6 5 5 4 5 6 6 6 6 6 6 7 6 6 6 6 6 6 5 5 5 5 5 5 5 4 3 4 4
10 7 8 4 6 4 4 6 4 11 10 9 9 7 16 18 14 16 14 17 17 18 19 20 17 15 6 6 11 12 11 11 9 3 2 3 2 1 2 5 5 6 6 7 7 7 7 8 8 8 7 6 6 6 6 6 5 5 5 5 6 5 6 6 7 7 7 7 7 7 6 6 6 6 6 6 5 5 5 5 4 5 3 3 4 5
8 9 5 6 5 2 4 7 6 8 5 4 4 1 7 11 11 11 18 18 19 21 20 19 19 17 13 8 10 10 10 6 4 2 1 1 1 1 2 3 5 6 7 6 8 8 8 8 8 8 8 6 6 5 5 5 5 6 6 5 6 6 6 7 7 7 7 7 7 7 7 6 6 6 5 5 6 4 4 5 5 4 4 3 3 3
11 9 7 6 6 6 5 9 9 5 3 2 5 6 12 13 13 15 10 14 16 13 14 15 18 20 18 14 5 7 8 5 2 4 4 2 2 1 1 5 6 7 8 8 8 9 8 8 9 8 7 7 6 6 5 5 5 6 6 6 6 7 7 7 8 7 7 7 7 7 7 6 6 6 6 6 5 5 5 5 5 4 3 4 4 4
6 8 8 7 5 7 8 7 6 6 11 8 13 9 13 12 13 13 14 15 10 15 16 17 19 20 17 7 9 8 6 4 4 9 7 6 4 5 6 7 8 8 9 10 9 9 9 8 8 8 7 8 8 6 5 4 5 6 7 7 6 7 7 8 8 7 7 7 7 7 7 7 7 7 6 5 5 5 5 5 4 4 4 5 5 6
2 2 3 10 5 8 8 9 8 9 9 12 5 6 8 7 7 5 6 11 13 15 18 18 19 19 15 10 9 9 6 5 10 12 8 9 8 7 9 7 8 8 8 8 9 10 9 8 8 8 8 8 8 6 5 5 6 6 8 7 7 7 8 9 8 8 7 7 7 7 7 7 7 6 6 5 5 5 6 5 5 4 4 4 5 6
6 6 3 6 8 8 7 9 10 5 6 8 6 3 9 9 10 7 9 9 16 18 14 15 18 18 7 11 13 11 11 6 13 7 8 9 9 8 7 10 10 9 9 9 9 9 9 9 9 9 9 8 7 6 6 7 8 8 8 8 8 9 9 8 7 7 6 6 7 6 6 6 5 5 5 5 5 5 5 5 4 4 5 5 5 5
5 3 7 10 10 11 11 8 5 5 2 2 8 7 9 11 13 11 13 9 4 5 11 14 13 13 10 10 12 10 13 6 1 9 11 12 11 9 8 8 9 9 10 9 9 8 8 7 8 8 8 7 6 6 5 6 8 8 8 7 8 8 7 6 6 6 5 5 5 6 5 4 5 5 5 5 5 5 5 5 6 6 6 6 5 5
7 6 6 8 11 12 11 12 9 5 3 6 3 11 14 9 9 13 8 2 1 4 5 10 13 14 12 11 12 11 5 7 10 9 11 10 10 10 10 10 10 10 9 9 8 8 8 8 9 10 9 8 7 6 6 7 8 8 7 8 9 7 5 5 5 5 5 5 4 4 4 4 5 5 5 5 5 6 6 5 5 5 6 6 6 8
11 8 10 11 5 4 4 8 8 12 5 13 13 3 5 9 3 4 4 2 3 1 3 1 2 2 2 3 4 8 9 8 10 11 10 11 11 11 11 11 10 10 10 9 8 7 8 8 9 9 8 7 7 7 7 7 9 8 7 9 7 5 5 5 5 5 5 5 5 5 5 5 6 6 5 5 6 6 6 6 5 7 6 6 7 8
13 7 6 6 10 9 11 11 8 8 4 11 14 8 7 5 3 2 3 3 2 1 3 3 1 2 2 8 9 8 9 11 9 11 11 10 10 10 10 9 10 9 9 8 8 8 6 9 9 8 8 7 7 7 6 7 8 8 8 7 5 4 5 5 5 5 5 5 5 5 5 5 6 5 5 5 6 6 6 6 6 6 5 6 6 6
13 13 8 7 8 9 6 9 5 1 10 5 1 4 6 5 5 2 3 2 5 3 2 3 4 4 3 8 9 11 10 8 11 11 12 11 11 11 10 10 9 9 9 9 8 6 6 8 9 9 8 8 8 8 7 6 8 8 8 6 5 5 6 6 5 5 5 5 5 5 5 5 5 5 4 5 5 6 5 6 6 6 5 5 5 5
3 1 3 1 4 0 3 1 1 0 1 1 3 3 5 5 5 4 2 2 1 2 5 2 5 6 7 9 12 6 9 11 13 11 10 11 10 10 10 10 9 8 9 8 8 7 7 9 9 9 9 9 8 8 7 6 7 8 6 5 5 5 6 6 5 4 4 4 4 5 5 6 5 5 5 5 4 4 4 5 5 5 6 6 5 6
1 2 2 3 1 6 11 11 7 3 2 3 1 2 1 2 2 2 1 3 3 3 3 4 6 7 8 8 9 12 12 12 12 10 10 10 10 10 10 9 9 8 8 7 8 8 7 7 8 8 8 9 7 7 7 7 7 7 6 6 5 5 5 4 3 3 3 4 4 5 5 6 5 6 5 5 5 4 4 4 4 5 5 5 6 7
4 5 4 6 6 10 8 3 3 2 1 2 1 1 3 2 2 1 0 1 1 3 3 5 5 7 6 5 7 12 12 12 13 12 10 9 10 10 9 9 9 9 7 7 7 6 7 6 7 8 8 8 7 7 6 6 6 6 6 5 4 4 3 3 2 2 3 4 4 4 4 4 6 6 5 5 5 5 5 4 4 4 5 6 6 7
1 9 5 8 8 3 3 1 1 2 5 6 6 6 5 3 4 2 2 2 4 5 6 5 4 6 6 7 8 10 13 11 10 12 12 10 10 9 9 9 8 8 8 8 6 6 6 7 7 7 8 8 7 6 6 6 6 6 5 4 3 4 4 3 4 3 3 3 2 3 4 3 3 4 4 4 4 3 4 5 5 5 5 3 3 4
3 6 2 4 6 8 9 5 8 2 3 5 10 14 11 5 5 4 4 4 5 6 6 8 6 5 3 3 8 11 15 10 9 10 11 9 10 10 11 10 9 9 8 7 6 7 7 7 7 7 8 7 6 6 6 6 5 5 4 4 3 4 3 3 2 1 1 1 2 3 4 4 4 5 5 6 6 7 6 4 7 7 6 6 7 11
6 5 5 5 6 5 1 9 10 8 3 0 1 3 8 8 8 8 8 7 7 6 7 11 11 6 4 3 5 10 13 12 11 9 10 9 9 9 9 11 10 8 8 7 8 7 7 7 8 8 8 7 6 5 5 5 4 4 4 4 4 4 3 3 1 1 2 3 4 5 5 4 4 5 5 5 6 6 8 9 4 4 8 10 11 13
Wind_Direction
167 183 192 202 204 201 204 215 234 38 257 219 201 209 211 199 196 95 91 82 226 257 229 232 241 254 259 254 250 246 197 204 227 232 231 229 230 229 229 231 231 232 236 224 215 196 188 189 193 192 190 191 193 198 198 197 199 199 197 194 197 192 193 193 192 193 194 203 206 213 214 215 212 214 211 214 212 202 206 210 199 201 208 214 209 207
220 203 206 209 213 200 202 187 138 151 180 224 203 209 206 205 207 98 118 125 145 223 240 221 249 255 259 259 256 249 246 238 230 232 235 237 235 232 229 231 231 234 228 161 168 184 189 197 190 181 186 188 193 199 199 199 198 198 198 199 197 190 194 197 196 195 197 199 203 203 208 212 215 214 209 215 213 213 205 206 201 202 213 220 217 216
200 213 207 184 69 97 118 144 172 215 199 206 229 204 234 206 106 130 106 131 136 191 254 204 251 259 256 256 252 247 243 244 241 238 238 237 237 237 233 231 231 222 219 199 211 197 195 191 191 186 189 196 203 199 200 201 198 198 199 202 198 196 195 199 199 198 200 199 200 200 200 203 214 220 220 218 214 203 206 203 213 208 205 211 206 192
196 218 169 87 132 131 125 162 188 193 211 213 207 206 211 116 182 198 151 148 175 230 328 359 298 276 268 259 255 246 238 241 240 238 239 233 237 234 232 230 224 219 216 217 201 199 199 188 186 187 188 193 196 204 202 198 200 198 199 199 197 198 198 198 198 199 201 198 198 202 206 204 212 217 211 218 220 215 199 209 206 198 179 185 198 187
178 65 9 173 161 177 174 181 191 199 210 213 255 226 204 142 190 356 131 162 138 234 314 286 282 270 252 248 244 233 226 236 227 224 240 237 240 246 284 306 251 231 221 218 209 206 204 197 193 192 191 185 190 196 200 196 196 197 198 196 195 196 197 197 194 194 197 190 194 201 210 224 222 68 212 204 213 220 218 200 195 205 198 205 208 213
160 86 10 142 165 180 166 183 200 198 218 192 222 263 322 174 140 109 123 156 198 217 181 230 285 270 238 225 229 208 148 229 232 233 239 235 225 210 227 238 239 238 238 238 228 218 213 215 202 192 187 190 195 199 199 197 195 194 193 193 193 195 196 197 195 190 191 192 190 188 192 199 211 220 213 213 210 207 216 224 214 190 198 203 206 207
93 109 217 157 158 158 179 206 197 212 219 211 179 183 167 316 126 136 149 204 229 253 132 237 235 275 108 195 206 212 209 230 210 210 241 238 227 202 209 220 222 226 221 220 231 232 231 225 226 218 200 199 205 206 191 191 193 192 191 188 191 191 193 194 192 188 186 192 195 195 198 200 206 213 218 223 227 228 223 226 223 221 205 213 207 201
133 131 121 170 153 168 177 207 183 195 224 223 37 242 143 176 160 171 185 214 289 92 120 227 245 272 281 263 106 123 232 251 247 236 235 229 221 204 200 203 204 210 217 220 225 224 224 224 220 223 216 211 215 200 186 186 187 190 190 185 188 188 190 186 185 187 187 190 195 198 201 206 212 214 215 205 219 226 234 228 233 234 218 212 216 201
145 143 173 154 176 176 198 230 141 189 218 0 50 258 146 193 189 178 212 214 359 354 257 182 174 264 257 240 144 180 256 254 246 241 235 227 190 185 178 167 176 201 218 240 243 236 228 222 219 220 216 205 198 186 184 186 185 189 189 188 186 188 185 184 182 185 186 190 192 196 200 207 216 222 223 211 206 212 210 218 216 219 207 200 206 212
355 158 164 173 168 191 81 31 348 168 203 164 160 92 89 91 94 188 205 220 195 239 249 190 183 244 270 243 204 170 236 245 244 242 230 130 135 133 144 131 144 160 217 244 264 262 252 239 223 207 190 179 192 182 183 180 181 186 188 190 185 188 185 180 180 185 185 188 190 195 202 205 206 214 221 220 215 212 214 214 204 204 208 201 191 197
37 168 256 14 201 50 114 56 27 29 66 133 170 111 107 102 121 93 0 223 234 240 240 97 190 280 291 247 227 176 216 217 237 225 107 114 119 133 112 124 103 5 300 266 263 259 251 228 212 189 203 193 160 170 184 180 180 181 186 187 186 186 181 178 178 183 187 188 189 198 201 203 207 208 214 212 218 215 217 224 227 228 226 222 219 210
118 113 184 74 321 160 114 90 43 357 138 160 148 141 121 100 146 187 184 184 231 247 87 326 142 252 227 253 210 82 33 3 1 172 124 112 123 117 119 115 68 7 326 295 273 262 218 181 186 189 187 172 168 169 175 170 172 175 182 183 182 182 180 175 176 180 184 183 188 199 203 202 208 210 210 215 217 216 220 226 227 235 251 248 248 249
126 155 92 59 274 202 165 107 74 89 198 222 161 162 173 166 166 201 185 205 215 245 111 70 296 251 236 244 285 271 286 245 203 219 157 102 100 110 114 79 35 1 323 299 285 264 218 194 168 177 160 156 162 168 166 165 165 170 176 179 177 178 175 169 173 174 177 180 184 194 203 206 209 213 214 214 219 221 226 229 236 234 234 243 250 246
128 107 173 132 169 242 219 155 138 168 202 196 185 176 187 188 180 217 202 224 255 73 266 94 143 272 286 278 240 252 259 42 59 170 290 264 267 291 314 338 330 321 316 305 272 250 224 178 165 159 158 159 152 152 156 158 160 163 168 173 175 166 164 157 162 169 174 182 186 192 199 205 205 210 214 214 215 216 217 217 220 226 232 238 238 240
162 213 212 166 187 159 211 273 175 168 167 203 17 197 212 205 186 196 199 196 213 165 101 237 205 237 222 97 6 349 343 135 188 221 210 250 268 272 288 283 270 269 263 180 239 199 155 150 148 146 143 136 137 145 145 150 157 151 158 164 165 153 156 152 157 166 179 184 189 190 197 201 201 204 205 210 209 213 216 217 220 222 227 232 238 238
205 163 38 12 323 125 177 185 313 112 130 112 278 21 274 229 2 238 38 354 102 174 161 160 228 271 241 358 266 227 230 199 193 183 190 228 219 210 250 246 220 194 119 142 202 139 123 111 120 122 126 131 129 141 140 151 149 152 154 159 158 154 149 155 162 172 180 182 186 187 193 198 195 179 211 209 160 215 218 219 219 220 220 224 227 230
153 195 41 117 161 133 64 343 6 283 187 185 144 211 172 17 99 104 124 104 326 325 260 154 251 253 259 262 257 260 174 181 146 172 175 208 190 184 228 219 165 111 106 148 136 107 117 124 116 95 107 123 128 137 151 151 153 155 149 155 151 142 148 162 169 169 175 176 180 190 191 192 187 180 193 201 205 210 215 220 221 223 224 229 231 238
179 127 6 17 161 44 32 354 40 61 324 109 214 190 132 211 7 159 248 139 227 250 267 157 230 262 277 301 102 242 256 185 143 153 243 212 164 201 191 185 147 126 121 54 288 86 81 85 89 98 96 102 131 141 140 136 137 135 140 147 138 140 151 161 165 167 170 173 177 181 189 192 193 195 202 208 211 212 214 218 224 231 235 232 237 240
109 106 97 6 36 34 243 214 111 81 53 311 211 117 170 178 216 181 235 234 221 227 249 219 217 250 239 242 171 139 110 197 142 127 186 205 201 204 181 160 130 124 117 104 82 92 101 111 106 100 98 89 75 76 83 101 110 105 107 129 137 141 149 154 160 164 167 172 172 179 185 188 191 199 202 208 215 216 221 223 225 227 234 238 233 234
167 138 98 24 85 116 133 202 190 178 188 48 251 207 31 352 249 172 198 289 254 250 242 247 153 262 196 221 232 249 257 234 145 121 117 128 144 164 149 129 127 122 100 86 79 73 79 71 80 82 83 84 79 80 73 71 82 98 98 112 100 106 124 139 147 155 159 164 170 170 174 184 192 197 201 202 206 212 217 220 225 232 232 235 238 245
168 326 155 117 334 183 175 212 210 172 166 171 182 180 201 200 352 336 231 216 220 246 242 271 263 244 213 188 215 216 50 68 54 96 122 121 130 146 97 103 108 106 102 75 73 72 66 74 83 85 76 67 74 69 62 62 68 72 77 90 96 117 124 126 133 142 137 150 151 152 153 150 158 163 156 160 171 189 207 220 231 241 268 295 258 259
157 200 159 137 153 215 167 31 7 14 201 190 183 189 187 162 164 181 219 89 152 215 235 230 246 256 120 306 181 178 107 129 101 93 129 140 101 92 92 88 86 96 102 83 66 86 94 81 87 96 95 92 88 80 72 68 67 67 70 62 69 71 87 108 115 124 119 117 127 137 134 129 124 133 127 146 148 202 223 266 302 338 332 281 265 250
261 81 112 166 181 185 40 37 27 44 14 359 289 206 191 204 196 199 221 190 197 232 30 347 340 257 78 121 166 120 120 129 124 99 156 149 257 246 87 90 100 102 92 112 77 83 96 94 94 87 90 88 81 78 77 77 69 65 66 67 66 67 72 64 74 80 83 96 99 97 89 91 91 93 101 89 72 46 12 1 322 328 278 268 272 259
92 137 113 92 68 61 162 172 177 180 294 278 245 256 199 197 201 212 248 123 185 131 212 224 234 264 157 143 25 55 95 81 262 221 212 241 259 341 47 55 63 81 102 116 118 110 108 114 121 123 114 103 93 83 75 75 76 76 69 63 72 66 62 67 65 74 82 84 80 79 87 87 85 80 66 57 51 43 27 14 3 3 302 292 282 286
183 168 151 133 135 146 290 185 199 156 208 216 208 200 208 201 75 72 103 282 253 180 211 197 246 259 172 105 100 145 171 203 210 212 216 239 209 331 28 64 74 84 112 122 118 115 116 107 97 86 84 82 80 80 75 69 68 67 63 58 61 66 60 66 70 85 88 92 94 83 79 72 64 59 56 52 48 43 30 28 11 26 339 335 324 333
206 160 173 169 175 177 186 194 201 200 204 192 29 75 181 203 161 159 229 185 241 176 193 222 250 255 95 166 192 184 177 199 221 187 200 243 274 180 81 122 97 126 129 121 115 109 93 88 89 86 85 80 72 73 76 74 74 74 70 64 60 68 75 72 75 83 88 85 84 75 66 61 59 59 59 54 55 49 47 43 44 22 39 23 9 359
190 184 202 194 198 205 202 206 84 85 94 180 201 192 188 198 198 200 174 216 219 204 201 213 232 253 196 203 199 195 184 181 181 183 193 202 225 240 252 167 133 153 145 127 112 104 105 95 87 84 80 78 77 73 71 75 74 72 70 61 55 54 62 64 71 79 82 79 79 74 65 62 61 59 62 65 62 67 63 62 56 42 41 23 17 24
158 214 208 212 223 227 227 231 140 154 176 195 196 195 189 189 191 193 196 216 212 196 239 229 230 241 240 199 198 207 201 196 180 177 185 183 192 192 199 194 193 176 131 117 128 124 109 101 93 83 80 81 83 83 79 73 74 72 71 71 66 66 68 73 82 80 77 75 70 69 67 65 69 71 68 70 67 62 56 49 46 39 33 29 25 28
182 212 208 216 232 238 251 48 144 180 190 196 203 190 186 183 189 191 215 228 198 201 229 233 222 230 243 222 204 201 198 188 186 182 170 165 154 158 172 197 199 192 162 148 126 122 115 104 97 95 87 88 91 89 84 79 78 78 74 68 62 59 57 63 74 73 73 74 73 71 74 77 75 72 67 61 56 48 40 38 35 32 28 26 22 14
196 227 211 214 232 235 223 143 181 201 205 215 214 207 195 181 185 193 208 214 213 216 225 240 241 226 233 225 216 215 193 183 144 81 91 115 157 170 188 202 201 191 173 151 141 128 112 103 94 89 90 83 81 84 84 81 73 66 70 66 62 64 57 66 70 80 77 75 72 68 69 68 62 59 51 47 44 39 31 30 24 23 25 17 18 359
223 215 205 182 229 235 223 138 161 218 213 222 210 204 183 189 195 203 210 219 220 231 233 238 245 253 253 227 218 202 163 86 109 149 150 171 159 182 191 202 202 175 154 140 128 107 100 98 97 94 85 79 74 75 76 76 78 77 73 69 66 64 58 68 74 71 71 70 62 61 57 57 52 50 49 41 41 35 29 24 15 18 19 10 3 344
190 230 50 165 221 233 208 175 183 157 205 252 190 167 174 174 195 202 217 213 210 218 231 241 249 250 246 209 206 187 125 158 165 176 192 179 170 179 198 193 184 163 147 127 105 102 104 106 105 95 91 86 77 70 72 75 78 77 74 69 65 61 60 66 70 74 70 69 65 57 52 51 50 51 46 39 32 26 23 15 10 15 7 358 351 346
184 187 185 175 213 232 211 179 144 118 108 249 220 200 195 200 202 208 220 221 217 212 222 222 231 231 250 152 197 182 182 179 189 201 216 213 181 179 189 187 133 98 102 114 114 109 107 102 95 95 89 81 75 78 71 78 85 79 78 75 70 67 67 70 73 76 71 61 58 52 48 46 46 46 42 35 25 20 11 15 5 10 355 353 343 318
185 201 209 183 220 197 36 93 120 160 214 221 207 204 194 201 204 208 213 221 220 213 228 230 239 254 156 179 189 188 190 201 213 226 213 249 95 121 118 108 105 109 103 97 103 109 108 105 99 88 85 87 85 82 83 78 85 87 78 78 71 70 69 74 68 66 62 55 48 45 40 37 40 38 36 28 21 15 6 9 8 355 331 321 324 323
189 193 210 189 213 206 132 129 160 218 229 225 234 192 200 210 202 209 223 223 222 220 230 241 246 245 181 189 192 195 196 207 218 217 73 42 45 40 74 112 127 132 131 127 121 115 114 113 111 109 101 94 93 96 95 87 82 85 77 71 70 62 68 65 66 59 54 51 43 39 35 33 33 29 25 18 13 5 358 2 350 344 335 336 331 326
176 188 193 216 194 125 145 178 212 232 219 227 89 129 196 205 213 214 234 229 218 215 214 230 242 246 241 223 202 201 188 153 77 44 28 70 46 72 103 156 127 128 134 137 128 123 125 125 120 116 110 108 105 97 90 91 88 87 82 70 72 70 65 65 63 56 50 48 39 35 29 28 25 20 18 8 2 359 358 359 350 341 338 330 320 306
188 180 190 208 192 212 185 207 219 16 11 173 206 197 171 189 190 199 225 236 227 221 217 229 238 242 238 231 143 79 85 91 188 241 174 157 134 95 75 104 117 114 114 114 116 113 104 102 102 104 108 105 99 98 85 84 88 93 88 77 69 70 66 64 58 47 44 42 33 28 25 22 18 14 7 3 358 359 354 351 342 337 339 323 314 309
210 198 182 203 208 207 212 227 221 225 244 222 217 210 196 195 194 198 216 251 237 219 213 215 228 236 237 166 121 114 115 130 234 237 163 164 144 124 75 82 92 106 110 112 104 102 101 99 99 99 102 101 88 81 82 81 90 91 82 75 68 68 63 57 51 41 36 33 24 20 20 18 13 9 1 359 354 348 342 335 323 325 333 317 314 310
262 295 245 214 202 192 218 230 216 220 231 233 219 148 168 187 176 139 206 243 240 219 211 210 223 232 227 133 142 138 121 207 233 235 136 155 144 137 125 111 111 110 111 114 118 115 109 102 100 102 97 93 87 73 71 78 86 83 76 68 64 60 56 46 38 29 23 20 14 14 14 11 8 4 355 350 338 335 326 322 319 309 306 302 300 294
195 210 198 217 221 208 205 217 229 213 243 230 170 171 160 155 123 126 217 235 238 230 210 211 217 228 181 146 152 176 187 222 232 238 128 135 131 127 133 133 124 117 105 103 97 100 103 105 101 91 84 81 77 70 69 73 74 74 73 66 60 55 47 34 25 16 12 12 11 13 10 4 3 352 346 329 321 315 308 299 301 309 315 307 292 291
189 205 209 218 214 222 219 237 255 250 210 175 159 132 157 144 149 191 213 223 248 138 195 216 218 221 211 192 165 206 214 226 238 100 129 123 121 115 110 112 111 116 117 112 110 109 103 93 86 85 81 72 62 55 62 86 84 77 71 70 65 54 37 22 15 10 11 11 9 7 3 356 355 337 318 308 305 307 310 313 315 310 313 311 306 304
187 184 201 203 216 214 214 224 231 259 224 126 216 163 149 130 201 208 209 17 91 163 184 189 193 208 212 205 192 214 97 104 114 112 119 131 123 124 121 119 116 105 98 101 108 108 103 98 93 87 74 63 56 53 63 82 86 82 77 71 59 45 22 13 12 0 358 9 359 352 343 341 335 320 313 317 319 321 311 300 302 309 310 303 307 314
174 174 192 201 206 243 235 237 233 243 205 170 114 14 236 198 232 124 120 43 45 322 127 66 227 141 138 149 116 112 126 117 125 133 131 126 129 131 134 132 128 126 125 124 112 106 110 105 96 85 82 69 60 58 66 83 89 85 78 66 48 27 17 5 2 356 358 354 354 348 343 337 331 325 322 327 328 316 308 308 317 324 308 308 317 314
160 190 176 218 186 195 197 203 212 222 287 124 153 198 190 236 46 112 133 128 209 148 157 158 230 152 133 142 132 124 127 130 121 131 126 123 125 127 125 125 122 121 117 108 108 113 109 105 101 94 83 78 75 71 69 82 89 87 80 66 38 18 13 8 355 353 351 355 345 336 330 325 319 316 325 328 319 313 308 323 328 318 319 328 315 310
171 205 180 204 174 206 203 220 214 141 159 185 208 14 189 166 66 47 36 85 155 204 176 180 164 141 131 120 119 133 133 143 141 143 139 141 136 136 134 130 129 124 122 117 109 104 108 112 109 102 93 86 82 76 72 75 89 89 79 60 38 17 11 357 347 346 347 335 327 324 327 322 313 315 329 324 321 325 328 330 335 330 329 323 319 320
4 313 69 138 225 103 302 212 52 255 315 25 73 34 348 360 48 40 62 103 68 115 166 170 140 141 133 134 129 139 143 146 140 141 133 135 133 128 124 119 109 104 102 102 99 91 100 105 105 105 104 96 89 86 74 68 74 82 76 59 37 19 2 343 339 336 321 329 326 323 329 328 325 336 330 320 327 327 322 321 325 329 327 329 327 330
221 105 194 180 257 181 233 210 184 161 75 34 33 58 5 353 357 13 16 20 49 120 128 90 142 151 148 153 143 147 146 150 140 137 135 132 134 135 135 131 126 125 124 114 112 113 113 116 115 114 110 107 100 94 87 78 75 75 72 58 34 6 346 320 319 323 336 342 332 335 342 343 346 336 335 340 339 328 323 324 325 324 325 331 334 334
240 157 207 206 191 208 235 72 45 62 304 293 291 300 280 226 193 197 85 39 81 99 111 117 116 121 140 146 141 140 145 152 144 142 141 140 140 142 137 134 128 116 105 105 108 107 106 109 114 117 115 111 107 99 91 89 85 80 75 61 32 349 340 325 352 341 346 342 341 342 348 341 339 341 341 341 338 336 331 333 334 332 332 338 335 330
90 135 206 176 211 226 30 271 224 201 216 212 207 231 233 210 179 157 126 128 119 116 106 99 93 135 151 148 132 136 140 157 150 146 142 141 139 141 140 135 133 128 126 120 116 118 120 120 116 115 114 113 113 106 96 96 94 88 77 53 22 358 356 351 350 326 334 339 351 355 352 339 347 340 332 328 329 325 316 312 316 315 304 294 301 318
127 201 121 127 216 221 228 190 141 209 237 192 203 209 194 130 103 101 104 127 147 142 147 123 85 58 69 119 155 154 151 141 140 140 138 140 142 137 136 133 131 128 122 117 113 110 109 116 123 125 122 120 119 110 109 109 102 84 67 41 19 12 12 352 315 318 32 15 12 8 352 352 351 351 347 341 337 328 318 296 293 289 298 305 311 310
200 177 174 201 195 244 185 148 182 205 267 35 314 145 137 148 141 158 184 181 178 171 160 137 121 111 109 86 141 158 153 142 138 131 124 132 136 135 136 139 137 137 131 130 125 124 125 128 135 131 129 125 123 114 114 111 98 81 53 37 17 23 10 345 347 42 34 24 17 4 351 347 346 346 343 338 337 332 329 324 325 295 293 303 312 317